Tracking 33199 objects as of 16-Feb-2026
HD Live streaming from Space Station
objects crossing your sky now

STARLINK-32765

Track STARLINK-32765 now!
10-day predictions
STARLINK-32765 is classified as:


NORAD ID: 62747
Int'l Code: 2025-014N
Perigee: 489.5 km
Apogee: 490.7 km
Inclination: 43.0 °
Period: 94.3 minutes
Semi major axis: 6861 km
RCS: Unknown
Launch date: January 21, 2025
Source: United States (US)
Launch site: AIR FORCE EASTERN TEST RANGE (AFETR)
Your satellite tracking list
Your tracking list is empty




NASA's NSSDC Master Catalog

Two Line Element Set (TLE):
1 62747U 25014N   26047.02823233  .00038594  00000-0  14032-2 0  9991
2 62747  43.0015 276.8039 0000908 294.3211  65.7546 15.27615872 59949
Source of the keplerian elements: AFSPC